Weather History for HKEL - November, 2012

Change the Weather History Date:

Wednesday, November 14, 2012

  Actual Average Record
Temperature  
Mean Temperature 64 °F -  
Max Temperature 77 °F - - ()
Min Temperature 51 °F - - ()
Degree Days  
Heating Degree Days 1    
Growing Degree Days 14 (Base 50)    
Moisture  
Dew Point 54 °F    
Average Humidity 73    
Maximum Humidity 100    
Minimum Humidity 36    
Precipitation  
Precipitation 0.00 in - - ()
Sea Level Pressure  
Sea Level Pressure 30.17 in    
Wind  
Wind Speed 6 mph ()    
Max Wind Speed 13 mph    
Max Gust Speed -    
Visibility 6.2 miles    
Events      
T = Trace of Precipitation, MM = Missing Value Source: Averaged Metar Reports

Daily Weather History Graph

Daily Weather History Graph

Search for Another Location

Airport or City:

Trip Planner

Search our weather history database for the weather conditions in past years. The results will help you decide how hot, cold, wet, or windy it might be!

Date:

Astronomy

Nov. 14, 2012 Rise Set
Actual Time 6:20 AM EAT 6:26 PM EAT
Civil Twilight 5:58 AM EAT 6:48 PM EAT
Nautical Twilight 5:33 AM EAT 7:13 PM EAT
Astronomical Twilight 5:08 AM EAT 7:39 PM EAT
Moon 6:37 AM EAT (11/14) 7:05 PM EAT (11/14)
Length of Visible Light 12h 49m
Length of Day
12h 06m
New Moon, 0% of the Moon is Illuminated
Nov 14
New Moon
Nov 20
First Quarter
Nov 28
Full
Dec 6
Last Quarter
Dec 13
New

Hourly Weather History & Observations

Time (EAT) Temp. Dew Point Humidity Pressure Visibility Wind Dir Wind Speed Gust Speed Precip Events Conditions
12:00 AM 59.0 °F 57.2 °F 94% 30.09 in 6.2 mi ENE 9.2 mph - N/A   Mostly Cloudy
1:00 AM 60.8 °F 55.4 °F 82% - - ENE 11.5 mph - N/A   Clear
2:00 AM 60.8 °F 55.4 °F 82% - - ENE 5.8 mph - N/A   Clear
3:00 AM 57.2 °F 55.4 °F 94% 30.09 in 6.2 mi ENE 3.5 mph - N/A   Mostly Cloudy
4:00 AM 57.2 °F 55.4 °F 94% 30.09 in 6.2 mi ENE 4.6 mph - N/A   Mostly Cloudy
5:00 AM 55.4 °F 53.6 °F 94% 30.09 in 6.2 mi ENE 9.2 mph - N/A   Scattered Clouds
6:00 AM 51.8 °F 50.0 °F 94% 30.12 in 6.2 mi East 8.1 mph - N/A   Mostly Cloudy
7:00 AM 57.2 °F 53.6 °F 88% - - East 3.5 mph - N/A   Clear
8:00 AM 60.8 °F 55.4 °F 82% 30.24 in 6.2 mi ENE 4.6 mph - N/A   Scattered Clouds
9:00 AM 66.2 °F 57.2 °F 73% 30.27 in 6.2 mi NE 8.1 mph - N/A   Scattered Clouds
10:00 AM 69.8 °F 55.4 °F 60% 30.27 in 6.2 mi East 10.4 mph - N/A   Scattered Clouds
12:00 PM 75.2 °F 48.2 °F 38% 30.24 in 6.2 mi ENE 5.8 mph - N/A   Mostly Cloudy
1:00 PM 75.2 °F 46.4 °F 36% 30.21 in 6.2 mi North 5.8 mph - N/A   Mostly Cloudy
2:00 PM 77.0 °F 50.0 °F 39% 30.15 in 6.2 mi East 5.8 mph - N/A   Scattered Clouds
3:00 PM 75.2 °F 50.0 °F 41% 30.15 in 6.2 mi Calm Calm - N/A   Mostly Cloudy
4:00 PM 73.4 °F 51.8 °F 47% 30.12 in 6.2 mi Variable 2.3 mph - N/A   Mostly Cloudy
5:00 PM 73.4 °F 48.2 °F 41% - 6.2 mi East 12.7 mph - N/A   Scattered Clouds
6:00 PM 69.8 °F 55.4 °F 60% 30.15 in 6.2 mi ESE 2.3 mph - N/A   Mostly Cloudy
7:00 PM 64.4 °F 59.0 °F 83% 30.15 in 6.2 mi Calm Calm - N/A   Mostly Cloudy
8:00 PM 60.8 °F 57.2 °F 88% 30.18 in 6.2 mi ENE 5.8 mph - N/A   Scattered Clouds
9:00 PM 57.2 °F 53.6 °F 88% 30.21 in 6.2 mi ENE 8.1 mph - N/A   Scattered Clouds
10:00 PM 57.2 °F 53.6 °F 88% 30.24 in - NE 5.8 mph - N/A   Clear
11:00 PM 55.4 °F 55.4 °F 100% 30.24 in - North - - N/A   Clear